| time (UTC) | temp C | wind direction | speed KPH | gust KPH | rain 1hr cm | rain 24hr cm | rain mn cm | humidity % | barometer mb |
| 20260906103023 | 21 | 317 | 0.0 | 0.0 | 0.00 | 0.97 | 0.00 | 98 | 1013.3 |
| 20260906101531 | 21 | 317 | 0.0 | 0.0 | 0.00 | 0.97 | 0.00 | 98 | 1013.4 |
| 20260906100033 | 21 | 278 | 0.0 | 0.0 | 0.00 | 0.97 | 0.00 | 98 | 1013.4 |
| 20260906094534 | 21 | 278 | 0.0 | 0.0 | 0.00 | 0.97 | 0.00 | 98 | 1013.2 |
| 20260906093032 | 21 | 278 | 0.0 | 0.0 | 0.00 | 0.97 | 0.00 | 98 | 1013.4 |
| 20260906091528 | 21 | 278 | 0.0 | 0.0 | 0.00 | 0.97 | 0.00 | 98 | 1013.3 |
| 20260906090005 | 21 | 278 | 0.0 | 0.0 | 0.00 | 0.97 | 0.00 | 98 | 1013.3 |
| 20260906084506 | 21 | 278 | 0.0 | 0.0 | 0.00 | 0.97 | 0.00 | 98 | 1013.3 |
| 20260906083007 | 21 | 278 | 0.0 | 0.0 | 0.00 | 0.97 | 0.00 | 98 | 1013.2 |
| 20260906081503 | 21 | 278 | 0.0 | 3.2 | 0.00 | 0.97 | 0.00 | 98 | 1013.4 |
| 20260906080004 | 21 | 278 | 0.0 | 0.0 | 0.00 | 0.97 | 0.00 | 98 | 1013.3 |
| 20260906074508 | 21 | 278 | 0.0 | 0.0 | 0.00 | 0.97 | 0.00 | 98 | 1013.3 |
| 20260906073016 | 21 | 278 | 0.0 | 0.0 | 0.00 | 0.97 | 0.00 | 98 | 1013.1 |
| 20260906071511 | 21 | 278 | 0.0 | 0.0 | 0.00 | 0.97 | 0.00 | 98 | 1013.4 |
| 20260906070004 | 21 | 278 | 0.0 | 0.0 | 0.00 | 0.97 | 0.00 | 98 | 1013.4 |
| 20260906064504 | 21 | 278 | 0.0 | 3.2 | 0.00 | 0.97 | 0.00 | 98 | 1013.4 |
| 20260906063012 | 21 | 278 | 0.0 | 3.2 | 0.00 | 0.97 | 0.00 | 98 | 1013.5 |
| 20260906061514 | 21 | 278 | 0.0 | 0.0 | 0.00 | 0.97 | 0.00 | 98 | 1013.5 |
| 20260906060013 | 22 | 278 | 0.0 | 0.0 | 0.00 | 0.97 | 0.00 | 97 | 1013.8 |
| 20260906054504 | 22 | 278 | 0.0 | 3.2 | 0.00 | 0.97 | 0.00 | 98 | 1014.0 |
| 20260906053009 | 22 | 278 | 0.0 | 0.0 | 0.00 | 0.97 | 0.00 | 98 | 1014.2 |
| 20260906051513 | 22 | 278 | 0.0 | 0.0 | 0.00 | 0.97 | 0.00 | 97 | 1014.2 |
| 20260906050017 | 22 | 278 | 0.0 | 3.2 | 0.00 | 0.97 | 0.00 | 98 | 1014.5 |
| 20260906044516 | 22 | 278 | 0.0 | 3.2 | 0.00 | 0.97 | 0.00 | 98 | 1014.6 |
| 20260906043008 | 22 | 257 | 0.0 | 3.2 | 0.00 | 0.97 | 0.00 | 98 | 1014.5 |
| 20260906041518 | 22 | 257 | 0.0 | 1.6 | 0.00 | 0.97 | 0.00 | 98 | 1014.3 |
| 20260906040018 | 22 | 257 | 0.0 | 0.0 | 0.00 | 0.97 | 0.00 | 97 | 1014.4 |
| 20260906034518 | 22 | 257 | 0.0 | 0.0 | 0.00 | 0.97 | 0.97 | 97 | 1014.2 |
| 20260906033023 | 22 | 257 | 0.0 | 0.0 | 0.00 | 0.97 | 0.97 | 97 | 1014.5 |
| 20260906031510 | 22 | 257 | 0.0 | 0.0 | 0.00 | 0.97 | 0.97 | 97 | 1014.5 |
| 20260906030016 | 22 | 257 | 0.0 | 3.2 | 0.00 | 0.97 | 0.97 | 97 | 1014.4 |
| 20260906024524 | 22 | 257 | 0.0 | 3.2 | 0.00 | 0.97 | 0.97 | 97 | 1014.5 |
| 20260906023025 | 22 | 257 | 0.0 | 3.2 | 0.00 | 0.97 | 0.97 | 97 | 1014.7 |
| 20260906021510 | 22 | 257 | 0.0 | 3.2 | 0.00 | 0.97 | 0.97 | 97 | 1014.9 |
| 20260906020014 | 22 | 257 | 0.0 | 3.2 | 0.00 | 0.97 | 0.97 | 97 | 1014.6 |
| 20260906014522 | 22 | 257 | 0.0 | 3.2 | 0.00 | 0.97 | 0.97 | 97 | 1014.6 |
| 20260906013029 | 22 | 257 | 0.0 | 3.2 | 0.00 | 0.97 | 0.97 | 97 | 1014.3 |
| 20260906011524 | 22 | 257 | 0.0 | 3.2 | 0.00 | 0.97 | 0.97 | 97 | 1014.2 |
| 20260906010010 | 22 | 257 | 0.0 | 3.2 | 0.00 | 0.97 | 0.97 | 97 | 1013.9 |
| 20260906004518 | 22 | 257 | 0.0 | 3.2 | 0.00 | 0.97 | 0.97 | 97 | 1013.7 |
| 20260906003021 | 22 | 257 | 0.0 | 0.0 | 0.00 | 0.97 | 0.97 | 97 | 1013.6 |
| 20260906001530 | 22 | 257 | 0.0 | 0.0 | 0.00 | 0.97 | 0.97 | 97 | 1013.1 |
| 20260906000008 | 22 | 257 | 0.0 | 3.2 | 0.00 | 0.97 | 0.97 | 96 | 1012.8 |
| 20260905234515 | 22 | 285 | 0.0 | 3.2 | 0.00 | 0.97 | 0.97 | 96 | 1012.9 |
| 20260905233010 | 22 | 266 | 0.0 | 3.2 | 0.00 | 0.97 | 0.97 | 97 | 1013.4 |
| 20260905232543 | 22 | 72 | 0.0 | 3.2 | 0.00 | 0.97 | 0.97 | 97 | 1013.2 |
| 20260905232536 | 22 | 73 | 0.0 | 3.2 | 0.00 | 0.97 | 0.97 | 96 | 1013.2 |
| 20260905232531 | 26 | 334 | 0.0 | 3.2 | 0.33 | 0.33 | 0.33 | 76 | 1014.1 |
| 20260905210005 | 32 | 127 | 1.6 | 3.2 | 0.00 | 0.00 | 0.00 | 55 | 1013.1 |
| 20260905204507 | 36 | 58 | 1.6 | 8.0 | 0.00 | 0.00 | 0.00 | 47 | 1012.2 |
| 20260905203016 | 36 | 220 | 1.6 | 4.8 | 0.00 | 0.00 | 0.00 | 44 | 1012.3 |
| 20260905201520 | 36 | 295 | 1.6 | 6.4 | 0.00 | 0.00 | 0.00 | 1012.4 | |
| 20260905200025 | 35 | 238 | 0.0 | 3.2 | 0.00 | 0.00 | 0.00 | 45 | 1012.5 |
| 20260905194506 | 35 | 351 | 1.6 | 4.8 | 0.00 | 0.00 | 0.00 | 47 | 1012.7 |
| 20260905193010 | 35 | 328 | 0.0 | 4.8 | 0.00 | 0.00 | 0.00 | 49 | 1012.8 |
| 20260905191519 | 35 | 68 | 0.0 | 4.8 | 0.00 | 0.00 | 0.00 | 47 | 1013.0 |
| 20260905190026 | 35 | 50 | 1.6 | 4.8 | 0.00 | 0.00 | 0.00 | 48 | 1013.2 |
| 20260905184531 | 35 | 13 | 1.6 | 6.4 | 0.00 | 0.00 | 0.00 | 49 | 1013.3 |
| 20260905183009 | 35 | 258 | 1.6 | 4.8 | 0.00 | 0.00 | 0.00 | 48 | 1013.5 |
| 20260905181515 | 35 | 9 | 1.6 | 4.8 | 0.00 | 0.00 | 0.00 | 53 | 1013.7 |
| 20260905180020 | 35 | 66 | 0.0 | 4.8 | 0.00 | 0.00 | 0.00 | 52 | 1013.9 |
| 20260905174528 | 34 | 273 | 1.6 | 8.0 | 0.00 | 0.00 | 0.00 | 55 | 1014.1 |
| 20260905173030 | 33 | 229 | 0.0 | 3.2 | 0.00 | 0.00 | 0.00 | 58 | 1014.3 |
| 20260905171535 | 33 | 248 | 1.6 | 6.4 | 0.00 | 0.00 | 0.00 | 58 | 1014.6 |
| 20260905170019 | 33 | 266 | 1.6 | 4.8 | 0.00 | 0.00 | 0.00 | 58 | 1014.7 |
| 20260905164525 | 32 | 359 | 1.6 | 6.4 | 0.00 | 0.00 | 0.00 | 60 | 1014.9 |
| 20260905163029 | 32 | 216 | 0.0 | 4.8 | 0.00 | 0.00 | 0.00 | 61 | 1015.3 |
| 20260905161533 | 31 | 141 | 0.0 | 3.2 | 0.00 | 0.00 | 0.00 | 65 | 1015.4 |
| 20260905160025 | 31 | 333 | 1.6 | 4.8 | 0.00 | 0.00 | 0.00 | 66 | 1015.5 |
| 20260905154523 | 30 | 243 | 1.6 | 9.7 | 0.00 | 0.00 | 0.00 | 66 | 1015.6 |
| 20260905153031 | 30 | 29 | 0.0 | 4.8 | 0.00 | 0.00 | 0.00 | 69 | 1015.7 |
| 20260905151531 | 29 | 36 | 1.6 | 6.4 | 0.00 | 0.00 | 0.00 | 70 | 1015.8 |
| 20260905150036 | 28 | 79 | 0.0 | 3.2 | 0.00 | 0.00 | 0.00 | 72 | 1015.9 |
| 20260905144521 | 28 | 173 | 0.0 | 3.2 | 0.00 | 0.00 | 0.00 | 74 | 1015.9 |
| 20260905143025 | 28 | 32 | 1.6 | 4.8 | 0.00 | 0.00 | 0.00 | 75 | 1016.1 |
| 20260905141528 | 27 | 359 | 0.0 | 4.8 | 0.00 | 0.00 | 0.00 | 78 | 1016.1 |
| 20260905140034 | 27 | 1 | 1.6 | 3.2 | 0.00 | 0.00 | 0.00 | 78 | 1016.1 |
| 20260905134502 | 26 | 54 | 0.0 | 3.2 | 0.00 | 0.00 | 0.00 | 82 | 1016.1 |
| 20260905133004 | 25 | 297 | 0.0 | 3.2 | 0.00 | 0.00 | 0.00 | 86 | 1016.2 |
| 20260905131506 | 24 | 52 | 0.0 | 1.6 | 0.00 | 0.00 | 0.00 | 92 | 1016.4 |
| 20260905130008 | 23 | 212 | 0.0 | 3.2 | 0.00 | 0.00 | 0.00 | 96 | 1016.3 |
| 20260905124520 | 23 | 212 | 0.0 | 0.0 | 0.00 | 0.00 | 0.00 | 97 | 1016.3 |
| 20260905123003 | 23 | 212 | 0.0 | 0.0 | 0.00 | 0.00 | 0.00 | 97 | 1016.3 |
| 20260905121504 | 23 | 212 | 0.0 | 0.0 | 0.00 | 0.00 | 0.00 | 96 | 1016.2 |
| 20260905120016 | 23 | 212 | 0.0 | 0.0 | 0.00 | 0.00 | 0.00 | 96 | 1016.0 |
| 20260905114513 | 23 | 212 | 0.0 | 0.0 | 0.00 | 0.00 | 0.00 | 96 | 1015.8 |
| 20260905113017 | 23 | 212 | 0.0 | 0.0 | 0.00 | 0.00 | 0.00 | 96 | 1015.8 |
| 20260905111505 | 23 | 212 | 0.0 | 0.0 | 0.00 | 0.00 | 0.00 | 96 | 1015.5 |
| 20260905110005 | 23 | 212 | 0.0 | 0.0 | 0.00 | 0.00 | 0.00 | 96 | 1015.5 |
| 20260905104511 | 23 | 212 | 0.0 | 0.0 | 0.00 | 0.00 | 0.00 | 96 | 1015.4 |